Skip Page Navigation
NASA JPL Caltech
NASA Logo - Jet Propulsion Laboratory + View the NASA Portal
+ Center for Near-Earth Object Studies
JPL Home Earth Solar System Stars & Galaxies Technology
JPL Solar System Dynamics
BODIES ORBITS EPHEMERIDES TOOLS PHYSICAL DATA DISCOVERY FAQ SITE MAP
JPL Small-Body Database Browser
Search: [ help ]  
266498 (2008 DF84)
Classification: Main-belt Asteroid          SPK-ID: 2266498
Ephemeris | Orbit Diagram | Orbital Elements | Mission Design | Physical Parameters | Discovery Circumstances | Close-Approach Data ]

[ show orbit diagram ]
Orbital Elements at Epoch 2459000.5 (2020-May-31.0) TDB
Reference: JPL 16 (heliocentric ecliptic J2000)
 Element Value Uncertainty (1-sigma)   Units 
e .1460296510174877 3.9114e-08  
a 2.720106559123387 3.057e-08 au
q 2.32289034756422 1.098e-07 au
i 9.270074784065962 7.0184e-06 deg
node 33.27528984190067 2.9227e-05 deg
peri 237.3143032561894 3.9525e-05 deg
M 186.4343292214746 2.7569e-05 deg
tp 2459790.520996395299
(2022-Jul-30.02099640)
0.00012703 TDB
period 1638.616423550827
4.49
2.7624e-05
7.563e-08
d
yr
n .219697541673537 3.7036e-09 deg/d
Q 3.117322770682554 3.5034e-08 au
  Orbit Determination Parameters
   # obs. used (total)      252  
   data-arc span      6147 days (16.83 yr)  
   first obs. used      2003-03-07  
   last obs. used      2020-01-04  
   planetary ephem.      DE431  
   SB-pert. ephem.      SB431-N16  
   condition code      0  
   norm. resid. RMS      .56671  
   source      ORB  
   producer      Otto Matic  
   solution date      2020-Jan-30 04:10:36  

Additional Information
 Earth MOID = 1.32278 au 
 Jupiter MOID = 2.0115 au 
 T_jup = 3.325 
[ show covariance matrix ]

Ephemeris | Orbit Diagram | Orbital Elements | Mission Design | Physical Parameters | Discovery Circumstances | Close-Approach Data ]

Physical Parameter Table
Parameter Symbol Value Units Sigma Reference Notes
absolute magnitude H 16.0   n/a MPO454981  

266498 (2008 DF84)          Discovered 2008-Feb-18 by Mt. Lemmon Survey at Mount Lemmon
Reference: 20110218/Numbers.arcLast Updated: 2011-02-22

[ hide close-approach data ]
Close-Approach Data   ...sorted by Date/Time (TDB)
Date/Time (TDB) Time Uncertainty
(days_HH:MM)
Body Nominal Distance (au) Minimum Distance (au) Maximum Distance (au) V-relative (km/s) V-infinity (km/s) JD (TDB) Time Uncertainty (minutes) Semi-major axis (km) Semi-minor axis (km) range-LOV angle (deg) N-sigma BP Orbit Ref. Reference Modified
2034-Nov-29 12:59 00:02 Hebe 0.0287977107221352 0.0287945970360757 0.0288008296607903 7.50725541708175 7.50725538832642 2464296.041032552 2.24285221566376 760.376532603327 88.0745250669896 -80.242516697714 48206.315712819 T 16 CATAB v2.0f-lin.ifort 2020-Jan-30 04:10:54 2020-Jan-30 04:10
2106-Sep-02 01:29 00:07 Hebe 0.0423339811542268 0.0422764243905191 0.0423915396560879 7.66882208557087 7.66882206642215 2490504.561679899 7.43238672790601 2901.44967938278 89.3399602184966 -8.48777308625558 10680.4131680327 T 16 CATAB v2.0f-lin.ifort 2020-Jan-30 04:10:54 2020-Jan-30 04:10
Ephemeris | Orbit Diagram | Orbital Elements | Mission Design | Physical Parameters | Discovery Circumstances | Close-Approach Data ]
ABOUT SSD CREDITS/AWARDS PRIVACY/COPYRIGHT GLOSSARY LINKS
FirstGov 2020-Sep-23 07:57 UT
(server date/time)  
NASA Home Page
Site Manager:   Ryan S. Park
Webmaster  Alan B. Chamberlin